Location: DaVinci Observatory
(43.1080°N, 78.6453°W)
Time: 08:39:39
(UTC-04:00)

N. Korean satellite - Pass Details

Date: 14 October 2017
Orbit: 459 x 517 km, 97.2° (Epoch: 19 October)

Event Time Altitude Azimuth Distance (km) Brightness Sun altitude
Rises 19:23:09 0° 172° (S) 2,547 10.2 -9.9°
Reaches altitude 10° 19:25:14 10° 175° (S) 1,661 9.2 -10.3°
Maximum altitude 19:28:47 68° 259° (W) 520 6.9 -11.0°
Drops below altitude 10° 19:32:18 10° 343° (NNW) 1,644 9.5 -11.6°
Sets 19:34:22 0° 346° (NNW) 2,519 10.4 -12.0°
